Airfield :
LOGIN :

Register | Disclaimer

   EN    FR    IT 

 










Legend :    VFR   Marginal VFR   IFR   Intensive IFR   Very Intensive IFR
Visi :
Ceiling :
>= 8 km
>= 3000ft
5 to 8 km
1000 to 3000 ft
1500m to 5 km
500 to 1000 ft
800 to 1500m
200 to 500 ft
< 800m
< 200 ft
Symbols :   Thunderstorms  Fog  Heavy snow  Heavy precipitations  Wind > 20 kt
SIGMETs :     Misc.  Thunderstorms  Icing  Turbulence  Mountain Waves  Volcanic Ashes







- Airport Elevation : 249 ft


EGOS - RAF Shawbury

CURRENT METAR :
  • 251150Z 25013KT 9999 FEW032CB SCT033 12/05 Q1009 BLU TEMPO 24015G25KT 6000 SHRA SCT020TCU WHT

EXPIRED METARs :
  • 251050Z 24014KT 9999 FEW029 SCT030 BKN250 11/05 Q1010 BLU TEMPO 25015G25KT 6000 SHRA SCT020TCU WHT
  • 250950Z 25015KT 9999 FEW022 SCT150 BKN250 11/06 Q1010 BLU TEMPO 24015G25KT 6000 SHRA SCT020TCU WHT

TAF TAF EGOS
Valid from the 25 at 12:00 until the 25 at 18:00 UTC


251040Z 2512/2518 25015G22KT 9999 FEW020
TEMPO 2512/2518 7000 SHRA SCT020
PROB30
TEMPO 2512/2515 27022G32KT 3000 +TSRA BKN016CB
No reported NOTAMs for that airfield.



MET'MAP, your aeronautical weather chart ! - Copyright ORBIFLY December 2007 - Disclaimer

ORBIFLY MET'MAP TEAM :

Programming & Development : Alexandra Zaïnal
Concept & Development : Baudouin d'Aumeries
Co-Development & Prog : Marc-Olivier Méhu
Technical & hardware support : Manuel Goepfert

Contact : metmap@orbifly.com




SOURCES & CREDITS :

   NOAA